Location: Sternwarte ZA, Rosenfeld-Brittheim
(48.2889°N, 8.6789°E)
Time: 16:38:00
(UTC+02:00)

ISS - Pass Details

Date: 20 July 2018
Orbit: 402 x 408 km, 51.6° (Epoch: 20 July)

Event Time Altitude Azimuth Distance (km) Brightness Sun altitude
Rises 00:36:28 0° 259° (W) 2,320 0.1 -19.9°
Reaches altitude 10° 00:38:33 10° 263° (W) 1,463 -0.9 -20.0°
Maximum altitude 00:41:48 61° 344° (NNW) 467 -3.3 -20.1°
Drops below altitude 10° 00:45:04 10° 67° (ENE) 1,470 -0.9 -20.2°
Sets 00:47:11 0° 71° (ENE) 2,333 0.1 -20.3°
